Terminal Aerodrome Forecast
Issued by NWS Cleveland, OH

Home | Current Version | Previous Version | Text Only | Print | Product List | Glossary On
Versions: 1 2 3 4 5 6 7 8 9 10 11 12 13 14 15 16 17 18 19 20
000
FTUS41 KCLE 281132
TAFYNG
TAF
KYNG 281132Z 2812/2912 33004KT 6SM BR SCT006 BKN250
     FM281400 03005KT P6SM SCT020 BKN100
     FM281800 05008KT P6SM SCT040
     FM290000 06005KT P6SM SKC=

USA.gov is the U.S. government's official web portal to all federal, state and local government web resources and services.